Weather History for WLFMV - March, 2014

Change the Weather History Date:

Sunday, March 2, 2014

  Actual Average Record
Temperature  
Mean Temperature 47 °F -  
Max Temperature 55 °F - - ()
Min Temperature 39 °F - - ()
Degree Days  
Heating Degree Days 18    
Moisture  
Dew Point 34 °F    
Average Humidity 62    
Maximum Humidity 81    
Minimum Humidity 44    
Precipitation  
Precipitation 0.00 in - - ()
Sea Level Pressure  
Sea Level Pressure 29.53 in    
Wind  
Wind Speed 19 mph ()    
Max Wind Speed 32 mph    
Max Gust Speed 44 mph    
Visibility 6.2 miles    
Events      
T = Trace of Precipitation, MM = Missing Value Source: Averaged Metar Reports

Daily Weather History Graph

Daily Weather History Graph

Search for Another Location

Airport or City:

Trip Planner

Search our weather history database for the weather conditions in past years. The results will help you decide how hot, cold, wet, or windy it might be!

Date:

Astronomy

Mar. 02, 2014 Rise Set
Actual Time 7:15 AM CET 6:29 PM CET
Civil Twilight 6:47 AM CET 6:58 PM CET
Nautical Twilight 6:13 AM CET 7:32 PM CET
Astronomical Twilight 5:40 AM CET 8:05 PM CET
Moon 7:33 AM CET (3/2) 8:12 PM CET (3/2)
Length of Visible Light 12h 11m
Length of Day
11h 13m
New Moon, 2% of the Moon is Illuminated
Mar 2
New Moon
Mar 8
First Quarter
Mar 16
Full
Mar 24
Last Quarter
Mar 30
New

Hourly Weather History & Observations

Time (CET) Temp. Windchill Dew Point Humidity Pressure Visibility Wind Dir Wind Speed Gust Speed Precip Events Conditions
12:00 AM 44.6 °F 35.5 °F 33.8 °F 66% 29.44 in 6.2 mi North 25.3 mph 39.1 mph N/A   Unknown
12:30 AM 44.6 °F 35.5 °F 33.8 °F 66% 29.44 in 6.2 mi North 25.3 mph - N/A   Unknown
1:00 AM 44.6 °F 36.6 °F 33.8 °F 66% 29.47 in 6.2 mi North 19.6 mph - N/A   Unknown
1:30 AM 44.6 °F 35.7 °F 33.8 °F 66% 29.44 in 6.2 mi North 24.2 mph 36.8 mph N/A   Unknown
2:00 AM 44.6 °F 35.5 °F 33.8 °F 66% 29.44 in 6.2 mi North 25.3 mph - N/A   Unknown
2:30 AM 44.6 °F 36.4 °F 33.8 °F 66% 29.47 in 6.2 mi North 20.7 mph 34.5 mph N/A   Unknown
3:00 AM 42.8 °F 34.3 °F 33.8 °F 70% 29.44 in 6.2 mi North 19.6 mph 35.7 mph N/A   Unknown
3:30 AM 42.8 °F 32.9 °F 33.8 °F 70% 29.44 in 6.2 mi North 26.5 mph 40.3 mph N/A   Unknown
4:00 AM 42.8 °F 33.3 °F 33.8 °F 70% 29.44 in 6.2 mi North 24.2 mph 38.0 mph N/A   Unknown
4:30 AM 42.8 °F 32.7 °F 33.8 °F 70% 29.44 in 6.2 mi North 27.6 mph 43.7 mph N/A   Unknown
5:00 AM 42.8 °F 33.1 °F 33.8 °F 70% 29.47 in 6.2 mi North 25.3 mph 42.6 mph N/A   Unknown
5:30 AM 42.8 °F 34.0 °F 33.8 °F 70% 29.47 in 6.2 mi North 20.7 mph - N/A   Unknown
6:00 AM 42.8 °F 31.9 °F 33.8 °F 70% 29.44 in 6.2 mi North 32.2 mph - N/A   Unknown
6:30 AM 42.8 °F 33.1 °F 33.8 °F 70% 29.50 in 6.2 mi North 25.3 mph 39.1 mph N/A   Unknown
7:00 AM 42.8 °F 33.1 °F 33.8 °F 70% 29.50 in 6.2 mi North 25.3 mph 40.3 mph N/A   Unknown
7:30 AM 42.8 °F 32.9 °F 33.8 °F 70% 29.50 in 6.2 mi North 26.5 mph 38.0 mph N/A   Unknown
8:00 AM 42.8 °F 33.5 °F 33.8 °F 70% 29.50 in 6.2 mi North 23.0 mph 41.4 mph N/A   Unknown
8:30 AM 44.6 °F 35.5 °F 33.8 °F 66% 29.53 in 6.2 mi North 25.3 mph 40.3 mph N/A   Unknown
9:00 AM 46.4 °F 37.4 °F 33.8 °F 62% 29.53 in 6.2 mi North 28.8 mph 41.4 mph N/A   Unknown
9:30 AM 46.4 °F 38.3 °F 33.8 °F 62% 29.56 in 6.2 mi North 23.0 mph 35.7 mph N/A   Unknown
10:00 AM 48.2 °F - 33.8 °F 58% 29.56 in 6.2 mi North 25.3 mph - N/A   Unknown
10:30 AM 48.2 °F - 35.6 °F 62% 29.56 in 6.2 mi North 24.2 mph 40.3 mph N/A   Unknown
11:00 AM 50.0 °F - 35.6 °F 58% 29.56 in 6.2 mi North 25.3 mph 38.0 mph N/A   Unknown
11:30 AM 50.0 °F - 33.8 °F 54% 29.59 in 6.2 mi North 27.6 mph 40.3 mph N/A   Unknown
12:00 PM 51.8 °F - 33.8 °F 50% 29.59 in 6.2 mi North 26.5 mph 40.3 mph N/A   Unknown
12:30 PM 51.8 °F - 33.8 °F 50% 29.59 in 6.2 mi North 26.5 mph - N/A   Unknown
1:00 PM 51.8 °F - 33.8 °F 50% 29.56 in 6.2 mi North 27.6 mph 39.1 mph N/A   Unknown
1:30 PM 53.6 °F - 35.6 °F 51% 29.56 in 6.2 mi North 24.2 mph 38.0 mph N/A   Unknown
2:00 PM 55.4 °F - 35.6 °F 47% 29.56 in 6.2 mi North 21.9 mph 35.7 mph N/A   Unknown
2:30 PM 53.6 °F - 33.8 °F 47% 29.56 in 6.2 mi North 25.3 mph 38.0 mph N/A   Unknown
3:00 PM 55.4 °F - 33.8 °F 44% 29.56 in 6.2 mi North 18.4 mph - N/A   Unknown
3:30 PM 55.4 °F - 35.6 °F 47% 29.56 in 6.2 mi North 20.7 mph - N/A   Unknown
4:00 PM 55.4 °F - 33.8 °F 44% 29.56 in 6.2 mi North 17.3 mph 28.8 mph N/A   Unknown
4:30 PM 53.6 °F - 35.6 °F 51% 29.59 in 6.2 mi North 15.0 mph - N/A   Unknown
5:00 PM 53.6 °F - 33.8 °F 47% 29.59 in 6.2 mi North 16.1 mph - N/A   Unknown
5:30 PM 51.8 °F - 32.0 °F 47% 29.59 in 6.2 mi North 15.0 mph - N/A   Unknown
6:00 PM 50.0 °F - 32.0 °F 50% 29.56 in 6.2 mi North 11.5 mph - N/A   Unknown
6:30 PM 50.0 °F - 33.8 °F 54% 29.59 in 6.2 mi North 8.1 mph - N/A   Unknown
7:00 PM 46.4 °F 42.9 °F 33.8 °F 62% 29.56 in 6.2 mi NNW 6.9 mph - N/A   Unknown
7:30 PM 46.4 °F 43.5 °F 33.8 °F 62% 29.59 in 6.2 mi North 5.8 mph - N/A   Unknown
8:00 PM 42.8 °F 41.1 °F 32.0 °F 66% 29.59 in 6.2 mi Variable 3.5 mph - N/A   Unknown
8:30 PM 44.6 °F 43.1 °F 33.8 °F 66% 29.59 in 6.2 mi West 3.5 mph - N/A   Unknown
9:00 PM 42.8 °F 40.1 °F 35.6 °F 76% 29.56 in 6.2 mi ENE 4.6 mph - N/A   Unknown
9:30 PM 41.0 °F 39.0 °F 33.8 °F 76% 29.59 in 6.2 mi SSW 3.5 mph - N/A   Unknown
10:00 PM 41.0 °F - 35.6 °F 81% 29.59 in 6.2 mi Variable 2.3 mph - N/A   Unknown
10:30 PM 39.2 °F 37.0 °F 33.8 °F 81% 29.59 in 6.2 mi East 3.5 mph - N/A   Unknown
11:00 PM 41.0 °F 37.1 °F 35.6 °F 81% 29.59 in 6.2 mi ESE 5.8 mph - N/A   Unknown
11:30 PM 42.8 °F - 33.8 °F 70% 29.59 in 6.2 mi Variable 2.3 mph - N/A   Unknown